| time (UTC) | temp F | wind direction | speed knots | gust knots | rain 1hr in | rain 24hr in | rain mn in | humidity % | barometer mb |
| 20260504214903 | 70 | 205 | 4.3 | 13.0 | 0.00 | 0.00 | 0.00 | 40 | 1006.9 |
| 20260504213903 | 70 | 187 | 10.4 | 20.9 | 0.00 | 0.00 | 0.00 | 39 | 1006.9 |
| 20260504212903 | 70 | 213 | 12.2 | 16.5 | 0.00 | 0.00 | 0.00 | 39 | 1006.9 |
| 20260504204902 | 70 | 200 | 9.6 | 17.4 | 0.00 | 0.00 | 0.00 | 40 | 1006.9 |
| 20260504203902 | 70 | 274 | 6.1 | 20.0 | 0.00 | 0.00 | 0.00 | 43 | 1007.2 |
| 20260504201901 | 70 | 253 | 1.7 | 11.3 | 0.00 | 0.00 | 0.00 | 41 | 1007.3 |
| 20260504200902 | 70 | 215 | 8.7 | 15.6 | 0.00 | 0.00 | 0.00 | 42 | 1007.5 |
| 20260504194901 | 69 | 223 | 8.7 | 20.9 | 0.00 | 0.00 | 0.00 | 45 | 1007.8 |
| 20260504193901 | 69 | 229 | 10.4 | 20.0 | 0.00 | 0.00 | 0.00 | 44 | 1007.8 |
| 20260504191900 | 68 | 159 | 7.8 | 16.5 | 0.00 | 0.00 | 0.00 | 46 | 1007.8 |
| 20260504185901 | 67 | 188 | 10.4 | 16.5 | 0.00 | 0.00 | 0.00 | 49 | 1008.3 |
| 20260504184900 | 67 | 171 | 13.9 | 14.8 | 0.00 | 0.00 | 0.00 | 50 | 1008.6 |
| 20260504183859 | 68 | 191 | 7.8 | 15.6 | 0.00 | 0.00 | 0.00 | 50 | 1008.8 |
| 20260504182900 | 67 | 293 | 7.0 | 17.4 | 0.00 | 0.00 | 0.00 | 50 | 1008.7 |
| 20260504181859 | 68 | 225 | 6.1 | 17.4 | 0.00 | 0.00 | 0.00 | 50 | 1008.9 |
| 20260504180859 | 67 | 219 | 16.5 | 18.2 | 0.00 | 0.00 | 0.00 | 51 | 1008.6 |
| 20260504175859 | 66 | 201 | 13.0 | 17.4 | 0.00 | 0.00 | 0.00 | 52 | 1008.8 |
| 20260504174859 | 66 | 217 | 9.6 | 17.4 | 0.00 | 0.00 | 0.00 | 52 | 1008.7 |
| 20260504173859 | 66 | 235 | 9.6 | 18.2 | 0.00 | 0.00 | 0.00 | 52 | 1008.8 |
| 20260504171858 | 65 | 282 | 8.7 | 19.1 | 0.00 | 0.00 | 0.00 | 54 | 1008.9 |
| 20260504150856 | 60 | 186 | 10.4 | 18.2 | 0.00 | 0.00 | 0.00 | 59 | 1009.9 |
| 20260504081849 | 46 | 193 | 6.1 | 7.8 | 0.00 | 0.00 | 0.00 | 67 | 1010.8 |
| 20260504045845 | 50 | 189 | 5.2 | 8.7 | 0.00 | 0.00 | 0.00 | 63 | 1011.1 |
| 20260504043845 | 50 | 188 | 4.3 | 7.8 | 0.00 | 0.00 | 0.00 | 64 | 1011.1 |
| 20260504042845 | 51 | 159 | 6.1 | 7.8 | 0.00 | 0.00 | 0.00 | 62 | 1011.4 |
| 20260504041845 | 51 | 173 | 7.0 | 8.7 | 0.00 | 0.00 | 0.00 | 62 | 1011.3 |
| 20260504040845 | 51 | 173 | 4.3 | 7.8 | 0.00 | 0.00 | 0.00 | 62 | 1011.4 |
| 20260504035844 | 51 | 162 | 3.5 | 9.6 | 0.00 | 0.00 | 0.00 | 61 | 1011.4 |
| 20260504034844 | 51 | 169 | 3.5 | 12.2 | 0.00 | 0.00 | 0.00 | 60 | 1011.5 |
| 20260504033844 | 51 | 175 | 7.0 | 9.6 | 0.00 | 0.00 | 0.00 | 62 | 1011.5 |
| 20260504032844 | 51 | 158 | 5.2 | 8.7 | 0.00 | 0.00 | 0.00 | 62 | 1011.5 |
| 20260504031844 | 51 | 161 | 4.3 | 8.7 | 0.00 | 0.00 | 0.00 | 63 | 1011.6 |
| 20260504025844 | 50 | 186 | 7.8 | 9.6 | 0.00 | 0.00 | 0.00 | 65 | 1011.7 |
| 20260504024843 | 50 | 152 | 4.3 | 9.6 | 0.00 | 0.00 | 0.00 | 65 | 1011.8 |
| 20260504023843 | 50 | 196 | 4.3 | 7.8 | 0.00 | 0.00 | 0.00 | 67 | 1011.8 |
| 20260504022843 | 49 | 127 | 1.7 | 8.7 | 0.00 | 0.00 | 0.00 | 68 | 1012.0 |
| 20260504021843 | 49 | 313 | 3.5 | 13.0 | 0.00 | 0.00 | 0.00 | 68 | 1012.3 |
| 20260504015843 | 51 | 187 | 6.1 | 12.2 | 0.00 | 0.00 | 0.00 | 60 | 1012.5 |
| 20260504014842 | 51 | 301 | 1.7 | 9.6 | 0.00 | 0.00 | 0.00 | 59 | 1012.1 |
| 20260504013842 | 51 | 227 | 1.7 | 8.7 | 0.00 | 0.00 | 0.00 | 60 | 1012.1 |
| 20260504010912 | 50 | 125 | 1.7 | 7.8 | 0.00 | 0.00 | 0.00 | 66 | 1012.1 |
| 20260504005842 | 49 | 167 | 5.2 | 7.0 | 0.00 | 0.00 | 0.00 | 66 | 1011.7 |
| 20260504004842 | 48 | 167 | 0.9 | 3.5 | 0.00 | 0.00 | 0.00 | 74 | 1011.6 |
| 20260504003841 | 48 | 165 | 1.7 | 4.3 | 0.00 | 0.00 | 0.00 | 73 | 1011.4 |
| 20260504000911 | 49 | 172 | 6.1 | 7.0 | 0.00 | 0.00 | 0.00 | 68 | 1011.6 |
| 20260503235841 | 49 | 213 | 4.3 | 9.6 | 0.00 | 0.00 | 0.00 | 67 | 1011.9 |
| 20260503234841 | 49 | 234 | 9.6 | 13.9 | 0.00 | 0.00 | 0.00 | 66 | 1011.9 |
| 20260503233840 | 50 | 223 | 4.3 | 22.6 | 0.00 | 0.00 | 0.00 | 64 | 1012.2 |
| 20260503232910 | 51 | 273 | 7.0 | 9.6 | 0.00 | 0.00 | 0.00 | 56 | 1011.9 |
| 20260503231840 | 51 | 355 | 2.6 | 4.3 | 0.00 | 0.00 | 0.00 | 54 | 1011.6 |
| 20260503230839 | 52 | 259 | 0.9 | 4.3 | 0.00 | 0.00 | 0.00 | 55 | 1011.4 |
| 20260503225840 | 52 | 263 | 1.7 | 6.1 | 0.00 | 0.00 | 0.00 | 54 | 1011.1 |
| 20260503224840 | 52 | 217 | 0.0 | 5.2 | 0.00 | 0.00 | 0.00 | 54 | 1011.1 |
| 20260503223909 | 52 | 199 | 2.6 | 4.3 | 0.00 | 0.00 | 0.00 | 55 | 1011.1 |
| 20260503222839 | 52 | 211 | 1.7 | 9.6 | 0.00 | 0.00 | 0.00 | 53 | 1011.1 |
| 20260503221839 | 52 | 182 | 5.2 | 7.8 | 0.00 | 0.00 | 0.00 | 53 | 1011.1 |
| 20260503220908 | 52 | 338 | 0.0 | 9.6 | 0.00 | 0.00 | 0.00 | 54 | 1011.2 |
| 20260503215908 | 52 | 344 | 3.5 | 11.3 | 0.00 | 0.00 | 0.00 | 54 | 1011.3 |